Simultaneous Nadir Overpasses (SNOs) Predictions

Prediction of SNOs between GOES-16 and AQUA Satellite Orbit:

Table of predicted SNOs for the next 14.0 days since TLE Epoch: 4/27/2017
Index Date Time (GOES-16) GOES-16 Lat,Lon AQUA Lat,Lon Distance(km) Time Diff (sec)
1 04/29/2017 19:31:05 -0.00, -89.48 0.17, -88.57 102.83 80
2 04/30/2017 07:52:21 0.00, -89.50 0.91, -93.73 481.49 80
3 05/01/2017 19:18:53 0.00, -89.48 0.82, -85.62 439.24 80
4 05/02/2017 07:40:09 -0.00, -89.50 0.26, -90.78 144.99 80
5 05/04/2017 07:25:16 -0.00, -89.51 -0.34, -87.81 192.19 80
6 05/04/2017 19:46:39 0.00, -89.49 -0.73, -93.01 400.00 80
7 05/06/2017 19:34:27 0.00, -89.50 -0.13, -90.05 61.93 80
8 05/08/2017 19:24:55 0.01, -89.52 0.55, -87.09 276.65 80
9 05/09/2017 07:46:09 -0.01, -89.55 0.59, -92.24 306.66 80
10 05/11/2017 07:31:17 -0.02, -89.57 -0.09, -89.29 32.15 80




NCC Satellite Simultaneous Nadir Overpasses (SNOs) Prediction Service
